Regional Weather Roundup
Issued by NWS

Home | Current Version | Previous Version | Text Only | Print | Product List | Glossary Off
Versions: 1 2 3 4 5 6 7 8 9 10 11 12 13 14 15 16 17 18 19 20 21 22 23 24 25 26 27 28 29 30 31 32 33 34 35 36 37 38 39 40 41 42 43 44 45 46 47 48 49

000
ASUS45 KCYS 210810
RWRWY

WYOMING REGIONAL WEATHER ROUNDUP
NATIONAL WEATHER SERVICE CHEYENNE WY
100 AM MST SUN DEC 21 2014

NOTE:  "FAIR" INDICATES FEW OR NO CLOUDS BELOW 12,000 FEET
WITH NO SIGNIFICANT WEATHER AND/OR OBSTRUCTIONS TO VISIBILITY.

WYZ001-210900-
YELLOWSTONE NATIONAL PARK

CITY           SKY/WX    TMP DP  RH WIND       PRES   REMARKS
LK YELLOWSTONE   N/A     27  24  89 CALM      29.79F
W YELLOWSTONE  NOT AVBL

$$
WYZ002>013-054>058-071-098>099-210900-
NORTHERN WYOMING

CITY           SKY/WX    TMP DP  RH WIND       PRES   REMARKS
JACKSON        MOCLDY    30  30 100 S12       29.83F WCI  21
CODY           FAIR      39  27  60 CALM      29.67F
GREYBULL       FAIR      13  12  96 SW3       29.73F
WORLAND        FAIR       9   6  88 CALM      29.72F
SHERIDAN       FAIR      28  18  66 CALM      29.65F
BUFFALO        FAIR      32  16  51 W6        29.67F WCI  26
GILLETTE       FAIR      34  20  56 SW18      29.68F WCI  23
HULETT           N/A    N/A N/A N/A MISG        N/A
NEWCASTLE      FAIR      30  25  80 E7        29.77F WCI  23

$$
WYZ014>020-022>026-101>103-210900-
CENTRAL WYOMING

CITY           SKY/WX    TMP DP  RH WIND       PRES   REMARKS
BIG PINEY      FAIR      21  19  92 E7        29.89F WCI  12
PINEDALE       FAIR      23  23 100 CALM      29.90F
DUBOIS         NOT AVBL
LANDER         FAIR      15  12  88 VRB3      29.75F
RIVERTON       FAIR      16  12  84 SW7       29.77F WCI   6
CASPER         FAIR      33  26  75 SW21      29.78F WCI  21
DOUGLAS        FAIR      30  23  75 N3        29.79F

$$
WYZ021-027>030-104>119-210900-
SOUTHERN WYOMING

CITY           SKY/WX    TMP DP  RH WIND       PRES   REMARKS
EVANSTON       CLOUDY    30  29  96 SW17      29.96F WCI  18
KEMMERER       FAIR      30  28  93 W16       29.91F WCI  19
FORT BRIDGER   FAIR      32  30  92 W21G26    29.96F WCI  20
ROCK SPRINGS   CLOUDY    30  25  81 SW14G23   29.92F WCI  19
DIXON          CLOUDY    32  28  84 SW14G20   30.02F WCI  22
RAWLINS        FAIR      29  24  82 SW24G37   29.87F WCI  15
SARATOGA       CLOUDY    30  23  74 SW5       29.95F WCI  25
LARAMIE        MOCLDY    30  19  63 SW17      29.86F WCI  18
CHEYENNE       FAIR      33  20  58 W10       29.86F WCI  25
TORRINGTON     FAIR     N/A N/A N/A W8        29.82F
PINE BLUFFS    FAIR      30  21  69 W5        29.86F WCI  25

$$


USA.gov is the U.S. government's official web portal to all federal, state and local government web resources and services.